Flag for Myanmar Weather past 2 weeks in Yangon, Myanmar

Now
79 °F

Mostly cloudy.


Feels Like: 83 °F
Forecast: 80 / 88 °F
Wind: 5 mph from Southwest

Location: Rangoon Airport

Current Time: Jul 7, 2015 at 6:55:49 AM

Latest Report: Jul 7, 2015 at 6:30 AM


Visibility: 4 mi

Pressure: 29.62 "Hg

Humidity: 94%

Dew point: 77 °F

Location of YangonLocation

Historic Weather in Yangon — Graph

°F

Yangon temperature yesterday

Maximum temperature yesterday: 86 °F (at 2:00 PM)
Minimum temperature yesterday: 77 °F (at 4:30 AM)
Average temperature yesterday: 79 °F

Past Weeks' High & Low Weather Summary

 TemperatureHumidityPressure
High90 °F (Jun 23, 1:00 PM)100% (Jun 22, 6:30 AM)29.92 "Hg (Jun 22, 6:30 AM)
Low75 °F (Jun 22, 5:30 AM)66% (Jul 1, 11:00 AM)29.59 "Hg (Jul 5, 4:00 PM)
Average80 °F91%29.75 "Hg
* Reported Jun 22 5:30 AM — Jul 7 5:30 AM, Yangon, Weather by CustomWeather, © 2015

Note: Actual official high and low records may vary slightly from our data, if they occured in-between our weather recording intervals... More about our weather records

Advertising

Yangon weather history for previous 24 hours

 ConditionsComfort  
Time TempWeatherWind HumidityBarometerVisibility
5:30 AM
Tue, Jul 7
79 °FMostly cloudy.5 mph94%29.62 "Hg4 mi
5:00 AM79 °FMostly cloudy.3 mph94%29.62 "Hg4 mi
4:00 AM79 °FMostly cloudy.3 mph94%29.59 "Hg4 mi
3:30 AM79 °FPassing clouds.5 mph94%29.62 "Hg4 mi
3:00 AM79 °FPassing clouds.7 mph94%29.62 "Hg4 mi
1:00 AM79 °FMostly cloudy.5 mph94%29.62 "Hg4 mi
12:30 AM79 °FMostly cloudy.2 mph94%29.65 "Hg4 mi
12:00 AM79 °FMostly cloudy.2 mph94%29.65 "Hg4 mi
11:30 PM
Mon, Jul 6
77 °FDrizzle. Mostly cloudy.No wind100%29.65 "Hg4 mi
11:00 PM77 °FDrizzle. Mostly cloudy.2 mph100%29.65 "Hg4 mi
10:00 PM77 °FDrizzle. Mostly cloudy.6 mph100%29.65 "Hg4 mi
9:30 PM77 °FDrizzle. Mostly cloudy.2 mph100%29.65 "Hg4 mi
9:00 PM77 °FDrizzle. Mostly cloudy.5 mph100%29.65 "Hg4 mi
8:30 PM77 °FLight rain. Mostly cloudy.2 mph100%29.62 "Hg3 mi
8:00 PM77 °FLight rain. Mostly cloudy.2 mph100%29.62 "Hg3 mi
7:30 PM77 °FRain. Mostly cloudy.2 mph100%29.62 "Hg2 mi
7:00 PM77 °FRain. Mostly cloudy.7 mph100%29.59 "Hg2 mi
6:30 PM77 °FRain. Mostly cloudy.5 mph100%29.59 "Hg2 mi
6:00 PM77 °FRain. Mostly cloudy.5 mph100%29.59 "Hg2 mi
5:30 PM77 °FRain. Mostly cloudy.6 mph100%29.59 "Hg2 mi
5:00 PM77 °FRain. Mostly cloudy.5 mph100%29.59 "Hg2 mi
4:30 PM79 °FHeavy rain. Mostly cloudy.9 mph100%29.59 "Hg1 mi
4:00 PM79 °FHeavy rain. Mostly cloudy.9 mph100%29.59 "Hg1 mi
3:00 PM84 °FMostly cloudy.7 mph89%29.59 "Hg4 mi
2:30 PM84 °FMostly cloudy.7 mph89%29.59 "Hg4 mi
2:00 PM86 °FMostly cloudy.7 mph84%29.62 "Hg4 mi
1:30 PM81 °FMostly cloudy.3 mph94%29.62 "Hg4 mi
1:00 PM81 °FMostly cloudy.6 mph94%29.65 "Hg4 mi
12:30 PM77 °FDrizzle. Mostly cloudy.3 mph100%29.65 "Hg4 mi
12:00 PM77 °FDrizzle. Mostly cloudy.3 mph100%29.65 "Hg4 mi
11:30 AM77 °FRain. Mostly cloudy.6 mph100%29.68 "Hg2 mi
11:00 AM81 °FHeavy rain. Mostly cloudy.12 mph100%29.68 "Hg1 mi
10:30 AM82 °FRain. Mostly cloudy.3 mph94%29.68 "Hg4 mi
10:00 AM84 °FRain. Broken clouds.3 mph84%29.68 "Hg4 mi
9:30 AM84 °FBroken clouds.3 mph84%29.68 "Hg4 mi
9:00 AM82 °FBroken clouds.3 mph84%29.68 "Hg4 mi
8:30 AM82 °FBroken clouds.3 mph84%29.68 "Hg4 mi
7:30 AM79 °FMostly cloudy.3 mph100%29.65 "Hg4 mi
6:30 AM77 °FDrizzle. Mostly cloudy.6 mph100%29.65 "Hg4 mi
6:00 AM77 °FMostly cloudy.6 mph100%29.65 "Hg4 mi
Weather by CustomWeather, © 2015

See weather overviewHow to use our weather pages